Location: Unspecified
(49.2170°N, 0.0000°E)
Time: 06:03:55
(UTC+00:00)

A-11 Canister half - All Passes

Search period start: 28 January 2021 00:00
Search period end: 07 February 2021 00:00
Orbit: 1517 x 1683 km, 47.2° (Epoch: 27 January)

Date Brightness Start Highest point End Pass type
(mag) Time Alt. Az. Time Alt. Az. Time Alt. Az.
28 Jan - 00:02:09 10° W 00:11:18 65° SSW 00:20:25 10° ESE night (unlit)
28 Jan - 02:07:19 10° W 02:15:00 31° SW 02:22:44 10° SSE night (unlit)
28 Jan - 17:29:06 10° S 17:35:57 23° SE 17:42:40 10° E visible
28 Jan - 19:30:10 10° SW 19:39:20 55° SSE 19:48:18 10° ENE visible
28 Jan - 21:34:22 10° W 21:43:48 80° S 21:53:03 10° E visible
28 Jan - 23:39:14 10° W 23:48:26 67° SSW 23:57:34 10° ESE visible
29 Jan - 01:44:21 10° W 01:52:12 32° SW 02:00:03 10° SSE night (unlit)
29 Jan - 17:06:33 10° S 17:13:10 21° SE 17:19:37 10° E daylight
29 Jan - 19:07:19 10° SW 19:16:29 53° SSE 19:25:24 10° ENE visible
29 Jan - 21:11:27 10° WSW 21:20:53 79° S 21:30:10 10° E visible
29 Jan - 23:16:19 10° W 23:25:33 69° SSW 23:34:42 10° ESE visible
30 Jan - 01:21:24 10° W 01:29:23 34° SW 01:37:23 10° SSE night (unlit)
30 Jan - 16:44:03 10° S 16:50:21 20° SE 16:56:32 10° E daylight
30 Jan - 18:44:30 10° SW 18:53:37 51° SSE 19:02:30 10° ENE visible
30 Jan - 20:48:32 10° WSW 20:58:00 79° S 21:07:16 10° E visible
30 Jan - 22:53:24 10° W 23:02:41 70° SSW 23:11:51 10° ESE visible
31 Jan - 00:58:26 10° W 01:06:33 36° SW 01:14:41 10° SSE night (unlit)
31 Jan - 16:21:35 10° SSE 16:27:34 18° SE 16:33:26 10° E daylight
31 Jan - 18:21:40 10° SW 18:30:46 50° SSE 18:39:36 10° ENE visible
31 Jan - 20:25:37 10° WSW 20:35:06 78° S 20:44:22 10° E visible
31 Jan - 22:30:29 10° W 22:39:48 72° SSW 22:48:58 10° ESE visible
01 Feb - 00:35:30 10° WNW 00:43:45 38° SW 00:51:59 10° SSE night (unlit)
01 Feb - 02:45:15 10° WSW 02:46:23 10° WSW 02:47:32 10° SW night (unlit)
01 Feb - 15:59:09 10° SSE 16:04:46 17° SE 16:10:18 10° E daylight
01 Feb - 17:58:51 10° SW 18:07:54 48° SSE 18:16:42 10° ENE visible
01 Feb - 20:02:42 10° WSW 20:12:12 77° S 20:21:29 10° E visible
01 Feb - 22:07:34 10° W 22:16:55 73° SSW 22:26:07 10° ESE visible
02 Feb - 00:12:33 10° WNW 00:20:55 40° SW 00:29:15 10° SSE visible
02 Feb - 02:21:00 10° WSW 02:23:38 11° WSW 02:26:17 10° SW night (unlit)
02 Feb - 15:36:47 10° SSE 15:41:59 16° SE 15:47:07 10° E daylight
02 Feb - 17:36:03 10° SW 17:45:03 46° SSE 17:53:48 10° ENE visible
02 Feb - 19:39:47 10° WSW 19:49:18 76° S 19:58:36 10° E visible
02 Feb - 21:44:39 10° W 21:54:01 74° SSW 22:03:14 10° ESE visible
02 Feb - 23:49:37 10° WNW 23:58:06 41° SW 00:06:31 10° SSE visible
03 Feb - 01:57:22 10° W 02:00:53 13° SW 02:04:24 10° SSW night (unlit)
03 Feb - 15:14:29 10° SSE 15:19:12 15° SE 15:23:52 10° E daylight
03 Feb - 17:13:15 10° SSW 17:22:12 44° SE 17:30:54 10° ENE daylight
03 Feb - 19:16:51 10° WSW 19:26:25 75° SSE 19:35:42 10° E visible
03 Feb - 21:21:43 10° W 21:31:08 75° SSW 21:40:22 10° ESE visible
03 Feb - 23:26:41 10° WNW 23:35:16 43° SW 23:43:47 10° SSE visible
04 Feb - 01:33:57 10° W 01:38:07 14° SW 01:42:18 10° SSW night (unlit)
04 Feb - 14:52:16 10° SSE 14:56:26 13° SE 15:00:31 10° E daylight
04 Feb - 16:50:28 10° SSW 16:59:21 42° SE 17:07:58 10° ENE daylight
04 Feb - 18:53:56 10° WSW 19:03:31 74° SSE 19:12:48 10° E visible
04 Feb - 20:58:48 10° W 21:08:15 76° S 21:17:29 10° ESE visible
04 Feb - 23:03:44 10° WNW 23:12:26 45° SW 23:21:02 10° SE visible
05 Feb - 01:10:38 10° W 01:15:21 15° SW 01:20:05 10° SSW night (unlit)
05 Feb - 14:30:12 10° SE 14:33:39 12° ESE 14:37:04 10° ESE daylight
05 Feb - 16:27:41 10° SSW 16:36:31 40° SE 16:45:04 10° ENE daylight
05 Feb - 18:31:02 10° WSW 18:40:37 73° SSE 18:49:55 10° E visible
05 Feb - 20:35:52 10° W 20:45:21 77° S 20:54:36 10° ESE visible
05 Feb - 22:40:48 10° WNW 22:49:36 47° SSW 22:58:16 10° SE visible
06 Feb - 00:47:24 10° W 00:52:35 16° SW 00:57:47 10° SSW night (unlit)
06 Feb - 14:08:22 10° SE 14:10:53 11° ESE 14:13:22 10° ESE daylight
06 Feb - 16:04:55 10° SSW 16:13:40 39° SE 16:22:09 10° ENE daylight
06 Feb - 18:08:06 10° WSW 18:17:44 72° SSE 18:27:02 10° E visible
06 Feb - 20:12:56 10° W 20:22:27 78° S 20:31:43 10° ESE visible
06 Feb - 22:17:52 10° WNW 22:26:45 49° SSW 22:35:29 10° SE visible
